[[{"header":{"parameterUnit":"m.s-1","parameterCategory":1,"la1":30.2991,"la2":30.254,"lo1":-89.0895,"lo2":-89.0444,"dy":0.0017,"dx":0.0017,"nx":28,"ny":28,"refTime":"2026-02-14T03:00:00:Z","depth":0,"parameterNumber":2,"parameterNumberName":"U-component_of_WINDS"},"data":[0,0,0,0,0,0,0,0,0,0,0,0,0,0,0,0,0,0,0,0,0,0,0,0,0,0,0,0,0,0,0,0,0,0,0,0,0,0,0,0,0,0,0,0,0,0,0,0,0,0,0,0,0,0,0,0,0,0,-3.7183,-3.7185,0,-3.7364,-3.7366,-3.7368,-3.7443,-3.7443,-3.7442,-3.7442,-3.7626,-3.7631,-3.7636,0,0,0,0,0,0,0,0,0,0,0,0,0,-3.6902,-3.6906,-3.7183,-3.7185,-3.7188,-3.7364,-3.7366,-3.7369,-3.7443,-3.7443,-3.7442,-3.7442,-3.7624,-3.7631,-3.7637,0,0,0,0,0,0,0,0,0,0,0,0,0,-3.7047,-3.6908,-3.7183,-3.7246,-3.7253,-3.7363,-3.7366,-3.737,-3.7443,-3.7443,-3.7442,-3.7442,-3.7622,-3.763,-3.7638,-3.7698,0,0,-3.7662,-3.7665,0,0,0,0,0,0,0,0,-3.7039,-3.7058,-3.7234,-3.7242,-3.725,-3.7381,-3.7335,-3.748,-3.7443,-3.7371,-3.7442,-3.7441,-3.7545,-3.7559,-3.7594,-3.7706,-3.7714,-3.7663,-3.7667,-3.7671,-3.7673,0,0,0,0,0,0,0,-3.7029,-3.705,-3.7255,-3.7237,-3.7247,-3.7265,-3.7285,-3.7363,-3.7459,-3.7377,-3.7383,-3.7404,-3.7549,-3.7586,-3.7599,-3.7717,-3.7662,-3.7669,-3.7674,-3.7677,-3.789,-3.789,0,0,0,0,0,0,-3.7008,-3.7041,-3.7249,-3.726,-3.7141,-3.7271,-3.7293,-3.7339,-3.7458,-3.7476,-3.7404,-3.7406,-3.7573,-3.759,-3.7606,-3.7685,-3.7671,-3.7678,-3.7683,-3.7889,-3.789,-3.7891,0,0,0,0,0,0,-3.7002,-3.7026,-3.7242,-3.7152,-3.7181,-3.7276,-3.7327,-3.7343,-3.7381,-3.7478,-3.7496,-3.7424,-3.7573,-3.7595,-3.7675,-3.7692,-3.7682,-3.7689,-3.7888,-3.7889,-3.789,-3.7843,0,0,0,0,0,0,-3.6994,-3.7023,-3.7047,-3.7152,-3.7186,-3.7307,-3.7328,-3.7347,-3.7394,-3.7399,-3.7502,-3.7519,-3.7575,-3.7663,-3.7683,-3.7703,-3.7695,-3.7886,-3.7888,-3.789,-3.7843,-3.7842,-3.7841,0,0,0,0,0,-3.6983,-3.7026,-3.7048,-3.7072,-3.7217,-3.7308,-3.7327,-3.7391,-3.7395,-3.742,-3.7483,-3.7515,-3.7687,-3.767,-3.7693,-3.7716,-3.7886,-3.7888,-3.789,-3.7843,-3.7842,-3.7841,0,0,0,0,0,0,-3.6919,-3.7041,-3.7066,-3.7144,-3.7216,-3.7321,-3.7354,-3.7388,-3.7459,-3.746,-3.7536,-3.7559,-3.7633,-3.7683,-3.7662,-3.7782,-3.7789,-3.7796,-3.7746,-3.7746,-3.7745,-3.7731,-3.7701,0,0,0,0,0,-3.6914,-3.6978,-3.7081,-3.714,-3.7174,-3.7258,-3.73,-3.7343,-3.7419,-3.745,-3.7519,-3.7591,-3.7662,-3.7707,-3.7777,-3.7851,-3.7875,-3.7878,-3.7877,-3.7876,-3.7881,-3.7925,-3.7928,-3.7897,-3.7897,-3.7897,0,0,-3.6904,-3.6979,-3.7014,-3.7129,-3.7189,-3.7253,-3.7282,-3.7349,-3.7398,-3.746,-3.754,-3.7593,-3.768,-3.7757,-3.7795,-3.7801,-3.7895,-3.7879,-3.7877,-3.7883,-3.7927,-3.793,-3.7933,-3.7899,-3.7899,-3.7898,0,0,-3.6919,-3.6982,-3.7038,-3.7098,-3.719,-3.7245,-3.7259,-3.7359,-3.7397,-3.7479,-3.7527,-3.7586,-3.7706,-3.7766,-3.7812,-3.7852,-3.7885,-3.7873,-3.7868,-3.791,-3.7913,-3.7915,-3.793,-3.7934,-3.7877,-3.7877,-3.7877,0,-3.6895,-3.6995,-3.7063,-3.7128,-3.7177,-3.7237,-3.7295,-3.735,-3.7459,-3.7491,-3.7497,-3.765,-3.7712,-3.7805,-3.7815,-3.785,-3.7868,-3.7861,-3.7907,-3.791,-3.7913,-3.7928,-3.7933,-3.7875,-3.7875,-3.7876,-3.7876,0,-3.6961,-3.7029,-3.7064,-3.7169,-3.7222,-3.7283,-3.736,-3.7406,-3.7445,-3.75,-3.7583,-3.7661,-3.7748,-3.7774,-3.7812,-3.7872,-3.7874,-3.7892,-3.7901,-3.7913,-3.7928,-3.7934,-3.7872,-3.7873,-3.7874,-3.7874,0,0,-3.6939,-3.7082,-3.7094,-3.7143,-3.7248,-3.7303,-3.7367,-3.7453,-3.7491,-3.7565,-3.762,-3.7721,-3.774,-3.7792,-3.7838,-3.7875,-3.7902,-3.7889,-3.7892,-3.7889,-3.7974,-3.7959,-3.7965,-3.7925,-3.7926,-3.7927,-3.7967,0,-3.6969,-3.7086,-3.715,-3.7241,-3.7305,-3.7364,-3.742,-3.7491,-3.7544,-3.7607,-3.7666,-3.7736,-3.7755,-3.7787,-3.7826,-3.789,-3.792,-3.7888,-3.7977,-3.798,-3.7953,-3.7973,-3.7957,-3.7991,-3.7973,-3.7974,-3.7975,0,-3.7018,-3.7092,-3.7189,-3.7289,-3.7318,-3.7367,-3.7452,-3.7511,-3.7593,-3.763,-3.7689,-3.7735,-3.7805,-3.7809,-3.7907,-3.7884,-3.7925,-3.7962,-3.7965,-3.7975,-3.7977,-3.7983,-3.8003,-3.8008,-3.7985,-3.7984,-3.7983,0,-3.6993,-3.7117,-3.7191,-3.7231,-3.7349,-3.7382,-3.7433,-3.7515,-3.7563,-3.7637,-3.7669,-3.775,-3.7795,-3.7857,-3.7924,-3.792,-3.8015,-3.8025,-3.8048,-3.8046,-3.8064,-3.8062,-3.809,-3.8091,-3.809,-3.809,-3.809,0,-3.7019,-3.7076,-3.7182,-3.7227,-3.7293,-3.7367,-3.743,-3.7485,-3.7558,-3.7615,-3.7671,-3.7724,-3.7809,-3.7873,-3.7926,-3.7999,-3.8019,-3.805,-3.8063,-3.8045,-3.8041,-3.8072,-3.8071,-3.8092,-3.8091,-3.8091,-3.8091,0,-3.7002,-3.7075,-3.716,-3.7265,-3.7293,-3.7337,-3.7427,-3.7474,-3.7531,-3.7603,-3.7624,-3.7713,-3.7792,-3.7865,-3.7968,-3.8004,-3.8078,-3.8095,-3.805,-3.8057,-3.8076,-3.8073,-3.8125,-3.8136,-3.8128,-3.8128,-3.8128,0,-3.7013,-3.7059,-3.7169,-3.7212,-3.7262,-3.733,-3.738,-3.7454,-3.7504,-3.7602,-3.7637,-3.7719,-3.7789,-3.7911,-3.7985,-3.8065,-3.8085,-3.8097,-3.8097,-3.8077,-3.8085,-3.8081,-3.8086,-3.8096,-3.8095,-3.8095,-3.8095,0,-3.7027,-3.7061,-3.713,-3.7213,-3.7271,-3.734,-3.741,-3.7442,-3.753,-3.7583,-3.7664,-3.7718,-3.7825,-3.7906,-3.7994,-3.8047,-3.8086,-3.8095,-3.8104,-3.8086,-3.8058,-3.8073,-3.8046,-3.8093,-3.8093,-3.8093,-3.8093,-3.8093,-3.7025,-3.7068,-3.7153,-3.7229,-3.729,-3.7355,-3.7404,-3.7468,-3.7537,-3.7629,-3.7669,-3.7751,-3.7834,-3.7957,-3.8009,-3.8074,-3.8083,-3.8096,-3.81,-3.8102,-3.8098,-3.8048,-3.8091,-3.8091,-3.8091,-3.8091,-3.8091,0,-3.7041,-3.7099,-3.7168,-3.7265,-3.7325,-3.7357,-3.7437,-3.7485,-3.7557,-3.763,-3.7698,-3.7791,-3.7871,-3.7951,-3.8035,-3.8072,-3.8092,-3.8092,-3.8089,-3.8101,-3.8086,-3.8069,-3.8074,-3.8074,-3.8074,-3.8074,-3.8074,-3.8074,-3.7056,-3.7132,-3.7176,-3.7283,-3.734,-3.7421,-3.7464,-3.7524,-3.7584,-3.7685,-3.7752,-3.7804,-3.7881,-3.7971,-3.8046,-3.8068,-3.8096,-3.809,-3.8117,-3.8101,-3.8102,-3.8103,-3.8087,-3.8096,-3.8096,-3.8127,-3.8127,-3.8127]},{"header":{"parameterUnit":"m.s-1","parameterCategory":1,"la1":30.2991,"la2":30.254,"lo1":-89.0895,"lo2":-89.0444,"dy":0.0017,"dx":0.0017,"nx":28,"ny":28,"refTime":"2026-02-14T03:00:00:Z","depth":0,"parameterNumber":3,"parameterNumberName":"V-component_of_WINDS"},"data":[0,0,0,0,0,0,0,0,0,0,0,0,0,0,0,0,0,0,0,0,0,0,0,0,0,0,0,0,0,0,0,0,0,0,0,0,0,0,0,0,0,0,0,0,0,0,0,0,0,0,0,0,0,0,0,0,0,0,4.5008,4.5009,0,4.5031,4.5031,4.5031,4.5025,4.5024,4.5024,4.5023,4.5043,4.5044,4.5045,0,0,0,0,0,0,0,0,0,0,0,0,0,4.496,4.4961,4.5008,4.5009,4.5009,4.5031,4.5031,4.5031,4.5025,4.5024,4.5024,4.5023,4.5042,4.5043,4.5045,0,0,0,0,0,0,0,0,0,0,0,0,0,4.4981,4.4961,4.5008,4.5008,4.5009,4.5031,4.5031,4.5031,4.5025,4.5024,4.5024,4.5023,4.5042,4.5043,4.5045,4.5067,0,0,4.5049,4.505,0,0,0,0,0,0,0,0,4.498,4.4983,4.5008,4.5008,4.5009,4.5024,4.5021,4.5043,4.5025,4.5019,4.5023,4.5023,4.5037,4.5039,4.5044,4.5068,4.5069,4.5049,4.505,4.5051,4.5051,0,0,0,0,0,0,0,4.4979,4.4982,4.5017,4.5009,4.5009,4.5007,4.501,4.5025,4.5031,4.5019,4.5019,4.5022,4.5037,4.5043,4.5045,4.5069,4.5049,4.505,4.5051,4.5052,4.5116,4.5117,0,0,0,0,0,0,4.4977,4.4981,4.5016,4.5018,4.4993,4.5009,4.5011,4.502,4.5031,4.5032,4.5022,4.5021,4.5041,4.5043,4.5045,4.5074,4.5051,4.5052,4.5053,4.5115,4.5116,4.5117,0,0,0,0,0,0,4.4976,4.498,4.5016,4.4999,4.5004,4.501,4.502,4.5021,4.5027,4.5033,4.5034,4.5027,4.504,4.5043,4.5063,4.5075,4.5052,4.5054,4.5114,4.5115,4.5117,4.5131,0,0,0,0,0,0,4.4975,4.498,4.4988,4.5,4.5005,4.5033,4.5021,4.5022,4.503,4.5029,4.5038,4.5039,4.504,4.5061,4.5064,4.5076,4.5055,4.5113,4.5115,4.5116,4.513,4.5133,4.5136,0,0,0,0,0,4.4973,4.499,4.4989,4.4993,4.5015,4.5033,4.5036,4.5038,4.5031,4.5039,4.5044,4.5039,4.5073,4.5063,4.5067,4.5079,4.5112,4.5114,4.5116,4.5128,4.5132,4.5136,0,0,0,0,0,0,4.4977,4.4991,4.499,4.5011,4.5021,4.5032,4.5043,4.5041,4.5053,4.5051,4.5052,4.5054,4.5075,4.5079,4.5067,4.5104,4.5092,4.5094,4.51,4.5104,4.5107,4.5105,4.5056,0,0,0,0,0,4.4981,4.4995,4.5006,4.5024,4.5029,4.5036,4.5043,4.5044,4.5054,4.5058,4.5064,4.5074,4.5087,4.5096,4.5108,4.5131,4.5134,4.5142,4.5145,4.5147,4.515,4.5165,4.517,4.5123,4.5123,4.5123,0,0,4.4988,4.4997,4.5006,4.5025,4.5033,4.5048,4.5039,4.5054,4.5066,4.506,4.508,4.5085,4.5096,4.5118,4.5128,4.5122,4.5164,4.515,4.5152,4.5153,4.5168,4.5172,4.5176,4.5125,4.5124,4.5124,0,0,4.5009,4.5017,4.5034,4.5043,4.5057,4.5062,4.5066,4.5078,4.5082,4.5103,4.51,4.5114,4.5135,4.5145,4.5152,4.5182,4.5178,4.5186,4.5201,4.5216,4.522,4.5223,4.5235,4.524,4.5188,4.5188,4.5188,0,4.5015,4.5038,4.5042,4.5059,4.5069,4.5068,4.5086,4.5094,4.5111,4.5117,4.5111,4.5142,4.5149,4.5175,4.5183,4.5188,4.5194,4.5184,4.5219,4.5222,4.5225,4.5237,4.5242,4.5189,4.5189,4.5189,4.5189,0,4.5047,4.5063,4.5075,4.5094,4.5105,4.5122,4.513,4.514,4.5142,4.5148,4.517,4.5179,4.5195,4.5201,4.5201,4.5228,4.5225,4.5219,4.5207,4.5231,4.5242,4.5246,4.519,4.519,4.519,4.5189,0,0,4.5067,4.5092,4.5096,4.5106,4.5124,4.5136,4.5155,4.5173,4.5183,4.5195,4.5211,4.5233,4.5229,4.5237,4.5239,4.5252,4.5278,4.5245,4.5246,4.5252,4.5312,4.5317,4.5322,4.5277,4.5278,4.5278,4.5311,0,4.509,4.5124,4.5131,4.516,4.5177,4.5178,4.5195,4.5207,4.5214,4.523,4.5237,4.5253,4.5245,4.5251,4.5265,4.5272,4.529,4.527,4.5292,4.5293,4.529,4.5327,4.5331,4.5362,4.5316,4.5316,4.5317,0,4.5121,4.5137,4.5169,4.5188,4.5195,4.521,4.5229,4.5244,4.5259,4.5264,4.5276,4.5277,4.5298,4.5286,4.5315,4.5301,4.5311,4.5317,4.5318,4.532,4.5306,4.5331,4.5371,4.5376,4.5323,4.5323,4.5322,0,4.5135,4.5165,4.5189,4.5197,4.5219,4.523,4.524,4.5255,4.5267,4.5283,4.5291,4.5309,4.5319,4.5333,4.534,4.533,4.5369,4.5357,4.5374,4.5374,4.5381,4.5381,4.5425,4.5387,4.5387,4.5387,4.5387,0,4.516,4.518,4.5196,4.521,4.5234,4.5242,4.5265,4.5274,4.5288,4.5306,4.5307,4.5323,4.5331,4.5349,4.5354,4.5379,4.5382,4.5387,4.5388,4.5387,4.5387,4.5393,4.5392,4.5388,4.5388,4.5388,4.5387,0,4.5178,4.519,4.5216,4.5237,4.5243,4.5259,4.5277,4.5292,4.5301,4.5323,4.5328,4.5342,4.5363,4.5372,4.5396,4.54,4.5429,4.5428,4.5424,4.5425,4.5442,4.5441,4.5492,4.55,4.5456,4.5456,4.5457,0,4.5193,4.5209,4.5233,4.5246,4.5257,4.5276,4.529,4.5299,4.5313,4.5335,4.5348,4.537,4.5387,4.5421,4.5433,4.5453,4.5453,4.547,4.5456,4.5456,4.5455,4.5454,4.5457,4.5472,4.5473,4.5473,4.5473,0,4.522,4.5226,4.5245,4.5268,4.5285,4.5302,4.532,4.533,4.5343,4.5358,4.5382,4.5396,4.5424,4.5446,4.5468,4.5478,4.5478,4.5478,4.5483,4.5482,4.548,4.5483,4.5432,4.5476,4.5476,4.5476,4.5476,4.5476,4.5238,4.5254,4.5274,4.5297,4.5312,4.5329,4.5346,4.5358,4.5378,4.5403,4.5408,4.5433,4.5452,4.5482,4.5493,4.5513,4.5509,4.5516,4.5518,4.552,4.5522,4.5478,4.5517,4.5517,4.5517,4.5517,4.5517,0,4.5266,4.528,4.5301,4.5327,4.5346,4.5348,4.5368,4.5384,4.5406,4.5425,4.5444,4.5472,4.5495,4.5511,4.5534,4.5547,4.5549,4.5553,4.5552,4.5555,4.5523,4.5517,4.5552,4.5552,4.5552,4.5552,4.5552,4.5552,4.5282,4.531,4.5319,4.5356,4.537,4.5396,4.5408,4.5425,4.544,4.5473,4.5493,4.5504,4.5522,4.5547,4.5569,4.5573,4.5582,4.5587,4.5591,4.5561,4.5557,4.5553,4.5548,4.5589,4.5589,4.5621,4.5622,4.5622]}]]